Weather History for Hastings, NE

Change the Weather History Date:

Wednesday, October 15, 2014

  Actual Average Record
Temperature  
Mean Temperature 54 °F 53 °F  
Max Temperature 73 °F 65 °F 90 °F (1938)
Min Temperature 34 °F 41 °F 25 °F (1952)
Degree Days  
Heating Degree Days 11 12  
Month to date heating degree days 150 144  
Since 1 July heating degree days 265 240  
Cooling Degree Days 0 0  
Month to date cooling degree days 3 11  
Year to date cooling degree days 1018 1074  
Growing Degree Days 3 (Base 50)    
Moisture  
Dew Point 35 °F    
Average Humidity 57    
Maximum Humidity 89    
Minimum Humidity 25    
Precipitation  
Precipitation 0.00 in 0.07 in 1.50 in (1920)
Month to date precipitation 1.35 1.07  
Year to date precipitation 28.03 24.29  
Snow  
Snow 0.00 in 0.10 in - ()
Month to date snowfall 0.0 0.3  
Since 1 July snowfall 0.0 0.5  
Since 1 September snowfall 0.0 0.5  
Snow Depth 0.00 in    
Sea Level Pressure  
Sea Level Pressure 29.99 in    
Wind  
Wind Speed 7 mph (South)    
Max Wind Speed 15 mph    
Max Gust Speed 18 mph    
Visibility 10 miles    
Events      
T = Trace of Precipitation, MM = Missing Value Source: NWS Daily Summary

Daily Weather History Graph

Daily Weather History Graph

Search for Another Location

Airport:

Trip Planner

Search our weather history database for the weather conditions in past years. The results will help you decide how hot, cold, wet, or windy it might be!

Date:

Astronomy

Oct. 15, 2014 Rise Set
Actual Time 7:44 AM CDT 6:53 PM CDT
Civil Twilight 7:17 AM CDT 7:20 PM CDT
Nautical Twilight 6:45 AM CDT 7:52 PM CDT
Astronomical Twilight 6:13 AM CDT 8:24 PM CDT
Moon 12:01 AM CDT (10/15) 2:28 PM CDT (10/15)
Length of Visible Light 12h 03m
Length of Day
11h 08m
Waning Gibbous, 51% of the Moon is Illuminated
Oct 15
Waning Gibbous
Oct 15
Last Quarter
Oct 23
New
Oct 30
First Quarter
Nov 6
Full

Hourly Weather History & Observations

Time (CDT) Temp. Windchill Dew Point Humidity Pressure Visibility Wind Dir Wind Speed Gust Speed Precip Events Conditions
12:53 AM 42.1 °F - 32.0 °F 67% 30.05 in 10.0 mi Calm Calm - N/A   Clear
1:53 AM 39.0 °F 35.7 °F 33.1 °F 79% 30.06 in 10.0 mi West 4.6 mph - N/A   Clear
2:53 AM 39.9 °F - 33.1 °F 77% 30.07 in 10.0 mi Calm Calm - N/A   Clear
3:53 AM 37.9 °F - 30.9 °F 76% 30.06 in 10.0 mi Calm Calm - N/A   Clear
4:53 AM 37.9 °F 33.5 °F 32.0 °F 79% 30.07 in 10.0 mi WSW 5.8 mph - N/A   Clear
5:53 AM 37.9 °F - 32.0 °F 79% 30.07 in 10.0 mi Calm Calm - N/A   Clear
6:53 AM 34.0 °F - 30.0 °F 85% 30.09 in 10.0 mi Calm Calm - N/A   Clear
7:53 AM 37.0 °F - 32.0 °F 82% 30.09 in 10.0 mi Calm Calm - N/A   Clear
8:53 AM 42.1 °F - 35.1 °F 76% 30.10 in 10.0 mi Calm Calm - N/A   Clear
9:53 AM 50.0 °F - 35.1 °F 57% 30.09 in 10.0 mi South 5.8 mph - N/A   Clear
10:53 AM 57.0 °F - 35.1 °F 44% 30.07 in 10.0 mi South 9.2 mph - N/A   Clear
11:53 AM 63.0 °F - 33.1 °F 33% 30.04 in 10.0 mi South 11.5 mph - N/A   Clear
12:53 PM 66.0 °F - 33.1 °F 29% 30.02 in 10.0 mi South 10.4 mph - N/A   Clear
1:53 PM 69.1 °F - 35.1 °F 29% 29.98 in 10.0 mi South 10.4 mph - N/A   Clear
2:53 PM 72.0 °F - 34.0 °F 25% 29.95 in 10.0 mi South 10.4 mph - N/A   Clear
3:53 PM 72.0 °F - 34.0 °F 25% 29.93 in 10.0 mi South 11.5 mph - N/A   Clear
4:53 PM 72.0 °F - 35.1 °F 26% 29.92 in 10.0 mi South 11.5 mph 18.4 mph N/A   Clear
5:53 PM 70.0 °F - 35.1 °F 28% 29.90 in 10.0 mi South 10.4 mph - N/A   Clear
6:53 PM 64.9 °F - 37.0 °F 36% 29.90 in 10.0 mi SSE 9.2 mph - N/A   Clear
7:53 PM 62.1 °F - 37.9 °F 41% 29.88 in 10.0 mi South 8.1 mph - N/A   Clear
8:53 PM 59.0 °F - 39.0 °F 48% 29.88 in 10.0 mi South 8.1 mph - N/A   Clear
9:53 PM 55.9 °F - 39.9 °F 55% 29.88 in 10.0 mi SSE 9.2 mph - N/A   Clear
10:53 PM 54.0 °F - 39.9 °F 59% 29.85 in 10.0 mi South 8.1 mph - N/A   Clear
11:53 PM 53.1 °F - 41.0 °F 64% 29.83 in 10.0 mi South 9.2 mph - N/A   Clear